Regional Weather Roundup
Issued by NWS

Home | Current Version | Previous Version | Text Only | Print | Product List | Glossary Off
Versions: 1 2 3 4 5 6 7 8 9 10 11 12 13 14 15 16 17 18 19 20 21 22 23 24 25 26 27 28 29 30 31 32 33 34 35 36 37 38 39 40 41 42 43 44 45 46 47 48 49 50

162
ASUS43 KMPX 162210
RWRMN
WEATHER ROUNDUP FOR MINNESOTA
NATIONAL WEATHER SERVICE TWIN CITIES/CHANHASSEN MN
400 PM CST TUE JAN 16 2018


NOTE: "FAIR" INDICATES FEW OR NO CLOUDS BELOW 12,000 FEET WITH NO
SIGNIFICANT WEATHER AND/OR OBSTRUCTIONS TO VISIBILITY. N/A MEANS
CURRENT SKY AND/OR WEATHER CONDITIONS ARE NOT AVAILABLE.

MNZ060>063-068>070-162300-
   Twin Cities Metro

CITY           SKY/WX    TMP DP  RH WIND       PRES   REMARKS
TWIN CITIES    FAIR       6  -2  69 W8        30.63S WCI  -7
ST PAUL        FAIR       8  -1  66 W8        30.64S WCI  -4
CRYSTAL        FAIR       5  -6  60 W9        30.62S WCI  -9
BLAINE         CLEAR      7  -2  66 W8        30.61S WCI  -6
LAKEVILLE      FAIR       1  -6  71 W7        30.63S WCI -11
EDEN PRAIRIE   FAIR       4  -5  66 W7        30.62F WCI  -8
SOUTH ST PAUL  FAIR       8  -1  64 W6        30.62S WCI  -2
LAKE ELMO      FAIR      10   1  67 W5        30.61S WCI   2
$$
MNZ001>005-007-008-013>017-022>024-027-028-162300-
   Northwest Minnesota

CITY           SKY/WX    TMP DP  RH WIND       PRES   REMARKS
BEMIDJI        FAIR       6 -10  46 W7        30.49F WCI  -5
HALLOCK        FAIR       3  -2  78 S21       30.45F WCI -18
ROSEAU         FAIR       3  -6  66 S13       30.44F WCI -14
WARROAD        FAIR       3  -8  60 SW13      30.43F WCI -14
THIEF RVR FALL FAIR      -1  -9  68 S15       30.51F WCI -21
CROOKSTON      FAIR       1  -6  71 S15       30.55F WCI -18
FOSSTON        FAIR      -2 -11  65 S14       30.52F WCI -21
DETROIT LAKES  FAIR       3  -8  60 CALM      30.56S
MOORHEAD       FAIR       1  -8  66 CALM      30.59F
PARK RAPIDS    FAIR       8  -5  55 W8        30.51F WCI  -4
MAHNOMEN       FAIR       0 -10  65 S13       30.53F WCI -18
$$
MNZ006-009>011-018-025>026-162300-
   North Central Minnesota

CITY           SKY/WX    TMP DP  RH WIND       PRES   REMARKS
BAUDETTE       FAIR       5  -8  55 SW12      30.43F WCI -11
FLAG ISLAND    FAIR       5  -6  61 S9        30.39F WCI  -9
INTL FALLS     FAIR       5  -8  55 SW10      30.45F WCI -10
WASKISH        FAIR       3  -8  60 SW9       30.49F WCI -11
BIG FORK       FAIR       7  -4  61 SW5       30.49R WCI  -2
LONGVILLE      FAIR      10  -2  56 SW3       30.51F
GRAND RAPIDS   FAIR      10  -2  58 W5        30.51F WCI   2
CRANE LAKE     MOCLDY     7  -2  66 CALM      30.49F
ORR            FAIR       7  -6  56 SW5       30.44F WCI  -2
COOK           MOCLDY     9   1  72 SW6       30.47S WCI  -1
WALKER         FAIR      10  -2  56 SW9       30.49F WCI  -2
$$
MNZ012-019>021-037-162300-
   Northeast Minnesota

CITY           SKY/WX    TMP DP  RH WIND       PRES   REMARKS
DULUTH         FAIR       8   1  73 W10       30.46F WCI  -6
ELY            FAIR       5  -2  72 W6        30.44F WCI  -6
HIBBING        FAIR       6  -1  73 W5        30.48F WCI  -3
EVELETH        FAIR       6  -3  66 W7        30.48F WCI  -6
DULUTH HARBOR  FAIR      14   3  62 W12       30.55F WCI   0
TWO HARBORS    FAIR      18   5  57 W8        30.46F WCI   7
SILVER BAY     FAIR      14   3  62 W6        30.45F WCI   5
GRAND MARAIS     N/A     17   5  59 SW9       30.46F WCI   6
G MARAIS ARPRT FAIR       9  -2  61 W6        30.36F WCI  -1
$$
MNZ029>031-032-039>041-046>048-054>057-064-162300-
   West Central Minnesota

CITY           SKY/WX    TMP DP  RH WIND       PRES   REMARKS
FERGUS FALLS   FAIR       0  -8  71 S7        30.63F WCI -13
WHEATON        CLEAR      7  -4  61 S3        30.64S
MORRIS         CLEAR      5  -2  72 SW3       30.61F
ALEXANDRIA     FAIR       4  -5  66 W7        30.57F WCI  -8
ELBOW LAKE     CLOUDY     1  -7  69 W3        30.60F HAZE
WADENA         FAIR       1  -6  71 SW8       30.54F WCI -12
GLENWOOD       FAIR       3  -4  72 W9        30.58F WCI -11
APPLETON       CLEAR      7  -2  66 CALM      30.63F
BENSON         CLEAR      5  -2  72 NW6       30.64F WCI  -6
ORTONVILLE     CLEAR      9  -2  61 CALM      30.62F
MADISON        CLEAR      9   0  66 CALM      30.63F
WILLMAR        FAIR       3  -2  78 W7        30.64F WCI  -9
$$
MNZ033>034-036-042>043-049>051-058-059-162300-
   Central Minnesota

CITY           SKY/WX    TMP DP  RH WIND       PRES   REMARKS
ST CLOUD       FAIR       5  -3  69 W5        30.59F WCI  -4
SAUK CENTRE      N/A      7  -2  66 W6        30.58F WCI  -3
PAYNESVILLE    FAIR       7   1  75 W6        30.60F WCI  -3
AITKIN         FAIR       7  -2  66 SW6       30.52F WCI  -3
PINE RIVER     FAIR       9  -2  61 SW5       30.54F WCI   0
BRAINERD       FAIR       7  -3  64 SW7       30.54F WCI  -5
STAPLES        FAIR       1  -8  66 W8        30.55F WCI -12
LONG PRAIRIE   FAIR       7  -4  61 SW6       30.57F WCI  -3
LITTLE FALLS   FAIR       9  -8  47 W3        30.59S
LITCHFIELD     FAIR       7   0  72 W6        30.61F WCI  -3
BUFFALO        FAIR       5  -4  67 SW6       30.63S WCI  -6
MAPLE LAKE     FAIR       6  -1  73 MISG      30.62S
HUTCHINSON     FAIR       5  -1  74 W10       30.63F WCI -10
$$
MNZ037-044-045-052-053-162300-
   East Central Minnesota

CITY           SKY/WX    TMP DP  RH WIND       PRES   REMARKS
PRINCETON      FAIR       5  -2  72 W5        30.60S WCI  -4
MORA           FAIR      12   0  57 SW5       30.58F WCI   4
CAMBRIDGE        N/A      7  -4  61 W5        30.60F WCI  -2
RUSH CITY      FAIR       7  -2  66 SW5       30.59F WCI  -2
MOOSE LAKE     FAIR      12   1  62 SW6       30.52S WCI   3
HINCKLEY       FAIR      10   0  61 SW9       30.57S WCI  -2
CLOQUET        FAIR      10   1  67 W7        30.49F WCI   0
MCGREGOR       FAIR      10   1  67 SW6       30.53F WCI   1
$$
MNZ071>073-080-081-089-090-097-098-162300-
   Southwest Minnesota

CITY           SKY/WX    TMP DP  RH WIND       PRES   REMARKS
MONTEVIDEO     CLEAR     10   0  61 CALM      30.64F
GRANITE FALLS  CLEAR      7   0  73 W5        30.66F WCI  -2
CANBY          CLEAR     13   3  66 SW6       30.63S WCI   3
MARSHALL       CLEAR      8   0  69 CALM      30.63F
REDWOOD FALLS  CLEAR      3  -4  72 W9        30.64F WCI -12
OLIVIA         CLEAR      7   0  72 W8        30.63S WCI  -6
PIPESTONE      SUNNY      5   0  78 NW7       30.58F WCI  -7
WINDOM         CLEAR      7  -8  51 W9        30.61S WCI  -7
WORTHINGTON    CLEAR      6   0  76 W9        30.61F WCI  -8
JACKSON        CLEAR      7   1  78 W8        30.61S WCI  -6
SLAYTON        CLEAR      6   1  77 W6        30.60F WCI  -4
$$
MNZ065>067-074>077-082>085-091>093-162300-
   South Central Minnesota

CITY           SKY/WX    TMP DP  RH WIND       PRES   REMARKS
MANKATO        FAIR       4  -3  73 W9        30.64F WCI -10
NEW ULM        CLEAR      1  -6  71 W9        30.64F WCI -14
ST JAMES       CLEAR      3  -2  78 W8        30.66S WCI -10
FAIRMONT       CLEAR      4  -2  76 W9        30.65S WCI -10
FARIBAULT      FAIR       3  -4  72 W7        30.62F WCI  -9
OWATONNA       FAIR       1  -4  78 W8        30.61F WCI -12
WASECA         FAIR       3  -2  78 W7        30.64S WCI  -9
ALBERT LEA     FAIR       1  -4  78 W6        30.61R WCI -10
$$
MNZ078>079-086>088-094>096-162300-
   Southeast Minnesota

CITY           SKY/WX    TMP DP  RH WIND       PRES   REMARKS
ROCHESTER      FAIR       4   1  88 NW10      30.58R WCI -11
RED WING       FAIR       9  -2  61 W8        30.62S WCI  -4
STANTON        FAIR       4  -3  72 W7        30.62R WCI  -8
DODGE CENTER   MOCLDY     1  -2  85 W12       30.58S WCI -15
WINONA         FAIR      14   5  67 W6        30.61R WCI   5
AUSTIN         FAIR       3  -2  78 NW10      30.60R WCI -12
PRESTON        FAIR       5  -1  75 NW7       30.58S WCI  -7
$$
ABBREVIATIONS USED IN REMARKS
   TC - TEMPERATURES IN CELSIUS
  WCI - WIND CHILL INDEX
   HX - HEAT INDEX
  VSB - VISIBILITY
$$




USA.gov is the U.S. government's official web portal to all federal, state and local government web resources and services.